Regional Weather Roundup
Issued by NWS Wakefield, VA

Home | Current Version | Previous Version | Graphics & Text | Print | Product List | Glossary On
Versions: 1 2 3 4 5 6 7 8 9 10 11 12 13 14 15 16 17 18 19 20 21 22 23 24 25 26 27 28 29 30 31 32 33 34 35 36 37 38 39 40 41 42 43 44 45 46 47 48 49 50
000
ASUS41 KAKQ 311510
RWRAKQ

REGIONAL WEATHER ROUNDUP
NATIONAL WEATHER SERVICE WAKEFIELD VA
1100 AM EDT THU JUL 31 2014

Note: "fair" indicates few or no clouds below 12,000 feet with no
significant weather and/or obstructions to visibility. * = Denotes
station may not report precipitation (e.g., rain,snow,etc.),
thunder or fog.

VAZ042-051-052>054-056-311600-
NORTHERN VIRGINIA

CITY           SKY/WX    TMP DP  RH WIND       PRES   REMARKS
WASH NATIONAL  MOSUNNY   80  61  52 S6        30.11F
DULLES         MOSUNNY   77  58  51 VRB5      30.11S
FORT BELVOIR   SUNNY     78  63  58 VRB6      30.12S
QUANTICO       MOSUNNY   78  67  68 S10       30.12S
FREDERICKSBRG* SUNNY     80  65  60 SW6       30.11S
STAFFORD*      SUNNY     80  64  58 SW7       30.15S
WARRENTON      SUNNY     79  69  70 CALM      30.12R
CULPEPER*      SUNNY    N/A N/A N/A SW5       30.12S
MANASSAS*      SUNNY     75  63  64 CALM      30.11F
LEESBURG*      SUNNY     77  63  61 CALM      30.12S
WINCHESTER     SUNNY     77  55  47 SW8       30.12R
$$

VAZ048-049-060>072-079>083-311600-
CENTRAL AND SOUTH CENTRAL VIRGINIA...AND NORTH CENTRAL NORTH CAROLINA

CITY           SKY/WX    TMP DP  RH WIND       PRES   REMARKS
RICHMOND       PTSUNNY   79  65  62 S7        30.14R
CHESTERFIELD*  MOSUNNY   79  61  53 S6        30.16R
HANOVER          N/A    N/A N/A N/A VRB5      30.15R
TAPPAHANNOCK*  SUNNY     80  63  56 S6        30.14S
CHARLOTTSVILLE SUNNY     78  59  51 W8        30.13R
ORANGE*        SUNNY     79  61  53 S8        30.14R
LOUISA*        SUNNY     81  64  57 W7        30.12S
FARMVILLE*     MOSUNNY   79  64  61 W5        30.12S
SOUTH HILL*    PTSUNNY   79  68  69 SW7       30.20S
ROANOKE RAPIDS NOT AVBL
RALEIGH        CLOUDY    77  68  73 SE5       30.15R
$$

VAZ088>098-311600-
SOUTHEAST VIRGINIA

CITY           SKY/WX    TMP DP  RH WIND       PRES   REMARKS
NORFOLK        MOSUNNY   78  64  61 S7        30.15R
VIRGINIA BEACH PTSUNNY   78  65  63 S7        30.14R
NORFOLK NAVAL  PTSUNNY   80  62  54 S5        30.16R
WEST POINT*    MOSUNNY   81  65  57 SW7       30.16R
NEWPORT NEWS   MOSUNNY   84  64  50 VRB7      30.14S
LANGLEY AFB    MOSUNNY   81  65  58 S7        30.14R
FORT EUSTIS    MOSUNNY   80  68  67 S6        30.13R
WILLIAMSBURG*  MOSUNNY   82  68  61 S7        30.15S
FRANKLIN*      PTSUNNY   79  64  61 S6        30.15S
WAKEFIELD      MOSUNNY   80  67  64 S8        30.14S
$$

VAZ020-022-025-037-045-311600-
WESTERN AND SOUTHWEST VIRGINIA

CITY           SKY/WX    TMP DP  RH WIND       PRES   REMARKS
STAUNTON*      SUNNY     76  56  51 CALM      30.16S
HOT SPRINGS VA MOSUNNY   62  53  71 W7        30.26R
LYNCHBURG      MOSUNNY   77  61  57 VRB3      30.16S
DANVILLE       PTSUNNY   75  64  68 CALM      30.15R
MARTINSVILLE   PTSUNNY   77  64  64 CALM      30.17S
ROANOKE        PTSUNNY   74  57  55 CALM      30.17S
BLACKSBURG     MOSUNNY   73  61  64 CALM        N/A
DUBLIN*        MOSUNNY   72  58  61 CALM      30.21R
MARION*        MOSUNNY   72  57  58 E5        30.23R
HILLSVILLE*    PTSUNNY   69  56  62 E5        30.21S
RICHLANDS*     PTSUNNY   72  59  64 NE5       30.19S
WISE*          PTSUNNY   70  55  60 NE6       30.21R
ABINGDON*      PTSUNNY   73  59  62 SE8       30.18R
$$

MDZ021>025-VAZ099-100-311600-
SOUTHERN MARYLAND AND THE DELMARVA PENINSULA

CITY           SKY/WX    TMP DP  RH WIND       PRES   REMARKS
PATUXENT RIVER MOSUNNY   80  63  55 SW8       30.13R
BAY BRIDGE APT   N/A     77  61  57 SW9       30.11S
LEONARDTOWN    SUNNY     77  63  61 SW6       30.14S
DOVER          SUNNY     79  65  62 S12       30.11S
GEORGETOWN     MOSUNNY   80  65  59 S9        30.14S
EASTON         MOSUNNY   81  66  61 SW13      30.16S
CAMBRIDGE      SUNNY     79  63  57 SW5       30.12S
SALISBURY      MOSUNNY   81  63  54 W8        30.14R
OCEAN CITY     MOSUNNY   80  67  64 SW8       30.14S
WALLOPS ISLAND MOSUNNY   82  64  54 W10       30.15R
ACCOMACK*        N/A     79  64  61 SW7       30.14S
$$

NCZ012>017-030>032-311600-
EASTERN NORTH CAROLINA

CITY           SKY/WX    TMP DP  RH WIND       PRES   REMARKS
ELIZABETH CITY MOSUNNY   80  63  55 VRB6      30.15R
AHOSKIE*       PTSUNNY   78  65  63 S5        30.15R
EDENTON*       MOSUNNY   80  61  52 S5        30.15S
CURRITUCK*     MOSUNNY   84  65  52 CALM      30.16R
KILL DEVIL HLS MOSUNNY   80  65  61 E3        30.14S
MANTEO         NOT AVBL
CAPE HATTERAS  MOSUNNY   85  63  47 VRB6      30.14R
GOLDSBORO      CLOUDY    79  72  78 E8        30.12R
WASHINGTON     CLOUDY    77  66  69 E6        30.14S
GREENVILLE     CLOUDY    81  68  65 SE7       30.15S
NEW BERN       PTSUNNY   84  67  56 E9        30.14R
WILMINGTON     PTSUNNY   84  70  62 E16G22    30.11R
$$

VAZ048-311600-
ELSEWHERE

CITY           SKY/WX    TMP DP  RH WIND       PRES   REMARKS
HARRISBURG PA  MOSUNNY   74  64  71 NW10      30.09S
BALTIMORE      MOSUNNY   79  58  48 SW5       30.10S
ANNAPOLIS      SUNNY     79  62  56 SW9       30.10F
ANDREWS AFB    SUNNY     79  63  56 SW10      30.11S
WILMINGTON DE  SUNNY     78  64  61 SW8       30.11S
PHILADELPHIA   MOSUNNY   78  62  57 SW10      30.11S
WILDWOOD NJ*   SUNNY     79  63  57 SW12      30.14S
ATLANTIC CITY  MOSUNNY   79  62  56 S9        30.12S
HENDERSON NC   PTSUNNY   75  67  76 S3        30.16R
GREENSBORO     CLOUDY    76  65  68 S8        30.14S
ROCKY MOUNT    CLOUDY    78  68  71 VRB5      30.15R
FAYETTEVILLE   PTSUNNY   80  68  66 E8        30.12R
CHARLOTTE      CLOUDY    76  66  71 E5        30.14R
$$

VAZ100-311600-
MARINE

STATION/POSITION TIME  TEMP    WIND        PRES    WAVE   SWELL
                       AIR SEA DIR/SP/G            HT/PER HT/PER
                 (UTC) (F)     (DEG/KT/KT) (MB)    (FT/S) (FT/S)
44066 TX TWR #4  1500   73 74  250/  4/  6 1020.6R   4/ 7   3/ 7
CAPE MAY NJ      1500   74 75  200/  7/ 10 1019.8F
LEWES DE         1500   77 71  220/  8/ 11 1020.0S
15NM E FENWICK I 1500   74 73              1020.7R   3/ 8
OCEAN-CITY-INLET 1500   76 72  190/  8/ 10 1020.2R
WACHAPREAGUE VA  1500   78 77  200/ 10/ 12 1020.6R
THOMAS POINT MD  1500   74 77  190/ 12/ 14 1020.2S
GOOSES REEF MD   1500   76     240/ 10/ 14 1020.4R
COVE POINT MD    1500   76     260/  9/ 11 1019.9S
SOLOMONS ISLAND  1500      79                N/A
BISHOPS HEAD MD  1500   75 76  220/ 11/ 12 1020.0R
PINEY POINT MD   1500          250/  3/  4   N/A
POTOMAC MD       1500   76     240/  6/  8 1019.6R
CAMBRIDGE MD     1500   78 78  210/  8/ 12 1019.8S
LEWISETTA VA     1500   77 77  240/  8/  9 1020.1R
RAPPAHANNOCK LGT 1500          200/ 10/ 10 1021.3R
STINGRAY PT      1500   77     220/  8/ 10 1021.2S
YORK RVR RNG VA  1500   77     200/  5/  6 1020.2R
YORKTOWN VA      1500   78 78  210/  4/  5 1020.3R
JAMESTOWN VA     1500   75     250/  8/ 10   N/A
DOMINION TERM VA 1500   78     230/  5/  6 1020.7R
KIPTOPEKE VA     1500      80  200/  5/  8   N/A
CHES BAY BRIDGE  1500   78 77  160/  3/  5 1020.2R
CAPE HENRY VA    1500   77     130/  8/ 10 1019.6R
WILLOUBY STN VA  1500          230/  6/  7 1020.0R
S CRANEY ISL VA  1500          190/  5/  7 1020.7R
CAPE HENRY BUOY  1500      76                N/A     2/ 8
1ST LANDING BUOY 1500   77     230/  2/  4 1020.4S
CAPE CHARLES BUO 1500      76                N/A     2/ 8
OFFSHORE WE BUOY 1500      78                N/A     2/ 7
64NM E OF VA BCH 1500   78 78  140/  2/  2 1020.7R   2/ 8   2/ 8
DUCK PIER NC     1500   80 76  120/  4/  5 1020.3S
44056 DUCK FRF   1500                        N/A     2/ 7
OREGON INLET NC  1500   77 78   60/  5/  7 1020.8R
HATTERAS NC      1500   81 79   90/  5/  8 1021.1R
DIAMOND SHLS NC  1500          VRB  8/ 10  1020.1R   3/ 7   3/ 7
CAPE LOOKOUT NC  1400   80      80/ 13/ 15 1019.7R
$$



USA.gov is the U.S. government's official web portal to all federal, state and local government web resources and services.